APSTAR 6D

Last updated on Thu Mar 14 2024 00:02:41 GMT+0000 (Coordinated Universal Time)

1 45863U 20045A 24072.54717560 -.00000329 00000+0 00000+0 0 9990 2 45863 0.0425 94.5061 0002575 293.6630 113.4580 1.00270665 13577
UTC large
Height (km)
Speed (km/s)
/
Latitude / Longitude
Inclination (degrees)
Orbital Period (minutes)
Azimuth
Elevation
Range (km)
Doppler Factor

Next 0 passes for location: London (51.5072 / 0.1276)

Sorry there are no passes over London.
APSTAR 6D